QPF
0.08 0.02 0.01 0.02 0.06 0.04 0.04 0.00 0.00 0.00 0.00 0.00 0.00 0.00 0.00 0.00 0.00 0.00 0.00 0.00 0.00 0.01 0.00 0.00 0.00 0.00 0.00 0.00 0.00 0.00 0.00 0.00 0.00 0.00 0.00 0.01 0.03 0.00 0.00 0.00 0.00 0.00 0.00
0.09 0.04 0.03 0.03 0.09 0.01 0.01 0.00 0.00 0.00 0.01 0.00 0.00 0.00 0.00 0.00 0.00 0.00 0.00 0.00 0.00 0.01 0.01 0.00 0.00 0.00 0.00 0.00 0.00 0.00 0.00 0.00 0.00 0.00 0.00 0.00 0.00 0.00 0.00 0.00 0.00 0.00 0.00
0.07 0.09 0.04 0.03 0.03 0.02 0.00 0.00 0.00 0.00 0.01 0.00 0.00 0.00 0.00 0.00 0.00 0.00 0.00 0.00 0.00 0.00 0.00 0.00 0.02 0.01 0.00 0.00 0.00 0.00 0.00 0.00 0.00 0.00 0.00 0.00 0.00 0.00 0.00 0.00 0.00 0.00 0.00
0.02 0.02 0.04 0.02 0.04 0.04 0.01 0.00 0.00 0.00 0.00 0.00 0.00 0.00 0.00 0.00 0.00 0.00 0.00 0.00 0.00 0.00 0.00 0.00 0.01 0.05 0.02 0.01 0.00 0.01 0.00 0.00 0.00 0.00 0.00 0.00 0.00 0.00 0.00 0.00 0.00 0.00 0.00
0.01 0.01 0.02 0.01 0.00 0.01 0.00 0.00 0.00 0.00 0.00 0.00 0.00 0.00 0.00 0.00 0.00 0.00 0.00 0.00 0.00 0.00 0.00 0.00 0.00 0.01 0.00 0.03 0.03 0.01 0.01 0.00 0.00 0.00 0.00 0.00 0.00 0.00 0.00 0.01 0.01 0.01 0.02
0.00 0.00 0.01 0.01 0.02 0.00 0.00 0.00 0.00 0.00 0.00 0.00 0.00 0.00 0.00 0.00 0.00 0.00 0.00 0.00 0.00 0.00 0.00 0.00 0.00 0.00 0.00 0.00 0.00 0.00 0.01 0.02 0.01 0.01 0.01 0.00 0.00 0.00 0.00 0.00 0.00 0.01 0.01
0.00 0.01 0.02 0.04 0.03 0.00 0.00 0.00 0.00 0.00 0.00 0.00 0.00 0.00 0.00 0.00 0.00 0.00 0.00 0.00 0.00 0.00 0.00 0.00 0.00 0.00 0.00 0.00 0.00 0.00 0.00 0.00 0.00 0.00 0.00 0.00 0.00 0.01 0.01 0.00 0.01 0.03 0.03
0.00 0.00 0.03 0.02 0.08 0.01 0.01 0.00 0.00 0.00 0.00 0.00 0.00 0.00 0.00 0.00 0.00 0.00 0.00 0.00 0.00 0.00 0.00 0.00 0.00 0.00 0.00 0.00 0.00 0.00 0.00 0.00 0.00 0.00 0.00 0.00 0.00 0.00 0.00 0.00 0.00 0.00 0.00
0.00 0.00 0.01 0.00 0.02 0.01 0.01 0.00 0.00 0.00 0.00 0.00 0.00 0.00 0.00 0.00 0.00 0.00 0.00 0.00 0.00 0.00 0.00 0.00 0.00 0.00 0.00 0.00 0.00 0.00 0.00 0.00 0.00 0.00 0.00 0.00 0.00 0.00 0.00 0.00 0.00 0.00 0.00
0.00 0.00 0.01 0.00 0.00 0.01 0.00 0.00 0.00 0.00 0.00 0.00 0.00 0.00 0.00 0.00 0.00 0.00 0.00 0.00 0.00 0.00 0.00 0.00 0.00 0.00 0.00 0.00 0.00 0.00 0.00 0.00 0.00 0.00 0.00 0.00 0.00 0.00 0.00 0.00 0.00 0.00 0.00
0.00 0.00 0.00 0.00 0.00 0.00 0.00 0.00 0.00 0.00 0.00 0.00 0.00 0.00 0.00 0.00 0.00 0.00 0.00 0.00 0.00 0.00 0.00 0.00 0.00 0.00 0.00 0.00 0.00 0.00 0.00 0.00 0.00 0.00 0.00 0.00 0.00 0.00 0.00 0.00 0.00 0.00 0.00
0.00 0.00 0.00 0.00 0.00 0.01 0.00 0.00 0.00 0.00 0.00 0.00 0.00 0.00 0.00 0.00 0.00 0.00 0.00 0.00 0.00 0.00 0.00 0.00 0.00 0.00 0.00 0.00 0.00 0.00 0.00 0.00 0.00 0.00 0.00 0.00 0.00 0.00 0.00 0.00 0.00 0.00 0.00
0.00 0.00 0.00 0.00 0.00 0.00 0.00 0.00 0.00 0.00 0.00 0.00 0.00 0.00 0.00 0.00 0.00 0.00 0.00 0.00 0.00 0.00 0.00 0.00 0.00 0.00 0.00 0.00 0.00 0.00 0.00 0.00 0.00 0.00 0.00 0.00 0.00 0.00 0.00 0.00 0.00 0.00 0.00
0.00 0.00 0.00 0.00 0.00 0.00 0.00 0.00 0.00 0.00 0.00 0.00 0.00 0.00 0.00 0.00 0.00 0.00 0.00 0.00 0.00 0.00 0.00 0.00 0.00 0.00 0.00 0.00 0.00 0.00 0.00 0.00 0.00 0.00 0.00 0.00 0.00 0.00 0.00 0.00 0.00 0.00 0.00
0.00 0.00 0.00 0.00 0.00 0.00 0.00 0.00 0.00 0.00 0.00 0.00 0.00 0.00 0.00 0.00 0.00 0.00 0.00 0.00 0.00 0.00 0.00 0.00 0.00 0.00 0.00 0.00 0.00 0.00 0.00 0.00 0.00 0.00 0.00 0.00 0.00 0.00 0.00 0.00 0.00 0.00 0.00
0.00 0.00 0.00 0.00 0.00 0.00 0.00 0.00 0.00 0.00 0.00 0.00 0.00 0.00 0.00 0.00 0.00 0.00 0.00 0.00 0.00 0.00 0.00 0.00 0.00 0.00 0.00 0.00 0.00 0.00 0.00 0.00 0.00 0.00 0.00 0.00 0.00 0.00 0.00 0.00 0.00 0.00 0.00
0.00 0.00 0.00 0.00 0.00 0.00 0.00 0.00 0.00 0.00 0.00 0.00 0.00 0.00 0.00 0.00 0.00 0.00 0.00 0.00 0.00 0.00 0.00 0.00 0.00 0.00 0.00 0.00 0.00 0.00 0.00 0.00 0.00 0.00 0.00 0.00 0.00 0.00 0.00 0.00 0.00 0.00 0.00
0.00 0.00 0.00 0.00 0.00 0.00 0.00 0.00 0.00 0.00 0.00 0.00 0.00 0.00 0.00 0.00 0.00 0.00 0.00 0.00 0.00 0.00 0.00 0.00 0.00 0.00 0.00 0.00 0.00 0.00 0.00 0.00 0.00 0.00 0.00 0.00 0.00 0.00 0.00 0.00 0.00 0.00 0.00
0.00 0.00 0.00 0.00 0.00 0.00 0.00 0.00 0.00 0.00 0.00 0.00 0.00 0.00 0.00 0.00 0.00 0.00 0.00 0.00 0.00 0.00 0.00 0.00 0.00 0.00 0.00 0.00 0.00 0.00 0.00 0.00 0.00 0.00 0.00 0.00 0.00 0.00 0.00 0.00 0.00 0.00 0.00
0.00 0.00 0.00 0.00 0.00 0.00 0.00 0.00 0.00 0.00 0.00 0.00 0.00 0.00 0.00 0.00 0.00 0.00 0.00 0.00 0.00 0.00 0.00 0.00 0.00 0.00 0.00 0.00 0.00 0.00 0.00 0.00 0.00 0.00 0.00 0.00 0.00 0.00 0.00 0.00 0.00 0.00 0.00
0.00 0.00 0.00 0.00 0.00 0.00 0.00 0.00 0.00 0.00 0.00 0.00 0.00 0.00 0.00 0.00 0.00 0.00 0.00 0.00 0.00 0.00 0.00 0.00 0.00 0.00 0.00 0.00 0.00 0.00 0.00 0.00 0.00 0.00 0.00 0.00 0.00 0.00 0.00 0.00 0.00 0.00 0.00
0.00 0.00 0.00 0.00 0.00 0.00 0.00 0.00 0.00 0.00 0.00 0.00 0.00 0.00 0.00 0.00 0.00 0.00 0.00 0.00 0.00 0.00 0.00 0.00 0.00 0.00 0.00 0.00 0.00 0.00 0.00 0.00 0.00 0.00 0.00 0.00 0.00 0.00 0.00 0.00 0.00 0.00 0.00
0.00 0.00 0.00 0.00 0.00 0.00 0.00 0.00 0.00 0.00 0.00 0.00 0.00 0.00 0.00 0.00 0.00 0.00 0.00 0.00 0.00 0.00 0.00 0.00 0.00 0.00 0.00 0.00 0.00 0.00 0.00 0.00 0.01 0.01 0.00 0.00 0.00 0.00 0.00 0.00 0.00 0.00 0.00
0.00 0.00 0.00 0.00 0.00 0.00 0.00 0.00 0.00 0.00 0.00 0.00 0.00 0.00 0.00 0.00 0.00 0.00 0.00 0.00 0.00 0.00 0.00 0.00 0.00 0.00 0.00 0.00 0.00 0.00 0.00 0.01 0.02 0.03 0.02 0.01 0.00 0.00 0.00 0.00 0.00 0.00 0.00
0.00 0.00 0.00 0.00 0.00 0.00 0.00 0.00 0.00 0.00 0.00 0.00 0.00 0.00 0.00 0.00 0.00 0.00 0.00 0.00 0.00 0.00 0.00 0.00 0.00 0.00 0.00 0.00 0.00 0.00 0.00 0.01 0.04 0.05 0.02 0.00 0.01 0.01 0.00 0.00 0.00 0.00 0.00
0.00 0.00 0.00 0.00 0.00 0.00 0.00 0.00 0.00 0.00 0.00 0.00 0.00 0.00 0.00 0.00 0.00 0.00 0.00 0.00 0.00 0.00 0.00 0.00 0.00 0.00 0.00 0.00 0.00 0.00 0.02 0.04 0.03 0.02 0.01 0.00 0.02 0.04 0.02 0.00 0.00 0.00 0.00
MSLP
1018.98 1019.26 1018.98 1019.53 1019.39 1019.26 1019.21 1018.87 1018.83 1018.92 1018.80 1018.67 1018.57 1018.72 1018.89 1019.44 1019.81 1020.08 1020.61 1020.90 1021.07 1021.19 1021.34 1021.60 1021.81 1021.99 1022.17 1022.39 1022.50 1022.54 1022.56 1022.63 1022.75 1022.78 1022.90 1022.96 1023.08 1023.25 1023.38 1023.49 1023.54 1023.55 1023.54
1018.94 1018.86 1018.94 1019.14 1019.03 1019.17 1019.04 1018.68 1018.54 1018.57 1018.57 1018.62 1018.64 1018.69 1019.38 1019.33 1019.80 1020.40 1020.64 1021.04 1021.23 1021.33 1021.40 1021.48 1021.69 1021.88 1022.16 1022.39 1022.51 1022.67 1022.80 1022.93 1023.02 1023.13 1023.23 1023.36 1023.40 1023.42 1023.57 1023.68 1023.73 1023.75 1023.69
1018.61 1018.59 1018.83 1018.98 1018.71 1018.61 1018.58 1018.58 1018.88 1018.99 1018.94 1018.92 1019.05 1018.66 1019.16 1019.48 1020.02 1020.43 1020.68 1021.09 1021.27 1021.22 1021.37 1021.54 1021.65 1021.78 1021.84 1022.03 1022.25 1022.49 1022.76 1022.96 1023.08 1023.14 1023.19 1023.30 1023.34 1023.46 1023.59 1023.70 1023.72 1023.75 1023.86
1017.94 1018.59 1018.92 1018.63 1018.97 1019.01 1018.89 1018.83 1019.06 1019.16 1019.33 1019.30 1019.22 1019.11 1019.15 1019.67 1019.90 1020.12 1020.32 1020.82 1021.12 1020.95 1021.20 1021.53 1021.58 1021.64 1021.81 1021.90 1022.10 1022.34 1022.64 1022.98 1022.88 1022.83 1022.83 1023.05 1023.36 1023.56 1023.63 1023.66 1023.71 1023.74 1023.73
1017.71 1018.33 1018.69 1018.72 1018.86 1018.82 1018.49 1018.90 1019.18 1019.30 1019.41 1019.34 1019.46 1019.24 1019.41 1019.21 1019.59 1020.07 1020.25 1020.77 1020.93 1020.95 1021.21 1021.30 1021.50 1021.74 1021.96 1021.86 1022.13 1022.17 1022.60 1022.52 1022.69 1022.70 1022.79 1023.07 1023.36 1023.52 1023.46 1023.49 1023.50 1023.56 1023.63
1017.42 1017.90 1018.23 1018.44 1018.35 1018.69 1018.71 1018.83 1019.09 1019.28 1019.39 1019.34 1019.20 1019.54 1019.58 1019.13 1019.39 1020.23 1020.31 1020.41 1020.85 1021.05 1021.29 1021.31 1021.61 1021.65 1021.81 1021.74 1022.12 1021.95 1022.22 1022.16 1022.47 1022.30 1022.90 1022.99 1023.15 1023.06 1023.07 1023.21 1023.31 1023.48 1023.44
1017.17 1017.70 1018.12 1018.30 1018.59 1018.69 1018.55 1018.74 1018.89 1019.20 1019.36 1019.33 1019.82 1020.19 1019.93 1019.62 1019.81 1019.72 1020.26 1020.46 1020.84 1021.14 1021.05 1021.38 1021.55 1021.57 1021.76 1021.69 1021.78 1021.68 1022.11 1022.33 1022.20 1022.41 1022.54 1022.64 1022.80 1022.76 1023.13 1023.35 1023.24 1023.18 1023.35
1016.88 1017.24 1017.83 1018.35 1018.30 1018.51 1018.80 1018.84 1018.95 1019.29 1019.47 1019.52 1020.14 1020.33 1020.68 1020.51 1020.31 1020.01 1020.34 1020.53 1020.68 1020.98 1021.15 1021.33 1021.36 1021.54 1021.78 1021.98 1022.10 1022.09 1022.31 1022.40 1022.41 1022.39 1022.55 1022.85 1023.08 1023.11 1023.21 1023.18 1023.56 1023.45 1023.48
1016.40 1016.78 1017.32 1017.67 1017.99 1018.40 1018.62 1018.69 1018.76 1019.07 1019.46 1019.66 1019.68 1020.14 1020.88 1020.96 1020.75 1020.64 1020.38 1020.53 1020.82 1021.00 1020.99 1020.95 1021.30 1021.55 1021.86 1022.18 1022.17 1022.27 1022.46 1022.53 1022.68 1022.83 1022.95 1023.13 1023.18 1023.20 1023.45 1023.52 1023.37 1023.34 1023.44
1016.14 1016.43 1016.96 1017.35 1017.74 1017.98 1018.36 1018.44 1018.63 1018.81 1019.17 1019.66 1019.59 1019.64 1019.90 1020.21 1020.81 1021.18 1020.77 1020.81 1020.66 1020.91 1021.04 1020.99 1021.20 1021.59 1021.89 1022.15 1022.36 1022.43 1022.59 1022.89 1023.03 1023.07 1023.14 1023.25 1023.42 1023.50 1023.52 1023.36 1023.36 1023.52 1023.65
1015.79 1016.02 1016.55 1017.01 1017.54 1017.75 1018.10 1018.29 1018.58 1018.74 1018.93 1019.30 1019.49 1019.75 1019.94 1020.10 1020.35 1020.94 1021.29 1021.16 1021.19 1020.84 1020.78 1020.80 1021.06 1021.56 1021.89 1022.18 1022.30 1022.40 1022.45 1022.72 1022.98 1023.14 1023.22 1023.38 1023.50 1023.52 1023.52 1023.62 1023.59 1023.74 1023.69
1015.62 1015.68 1016.10 1016.59 1016.92 1017.33 1017.78 1018.02 1018.26 1018.51 1018.80 1019.00 1019.24 1019.50 1019.71 1020.13 1020.31 1020.54 1020.87 1021.18 1021.08 1020.98 1020.62 1020.76 1020.81 1021.16 1021.51 1021.89 1022.04 1022.09 1022.31 1022.56 1022.73 1022.97 1023.19 1023.36 1023.40 1023.46 1023.45 1023.46 1023.58 1023.58 1023.41
1015.25 1015.48 1015.79 1016.26 1016.64 1016.81 1017.14 1017.39 1017.94 1018.17 1018.42 1018.79 1019.07 1019.27 1019.31 1019.54 1019.61 1019.90 1020.48 1020.71 1020.87 1020.81 1020.79 1020.69 1020.44 1020.64 1020.95 1021.43 1021.56 1021.83 1022.08 1022.35 1022.51 1022.75 1022.97 1023.05 1023.06 1023.23 1023.34 1023.42 1023.43 1023.46 1023.48
1014.51 1014.84 1015.21 1015.40 1015.84 1016.24 1016.65 1016.91 1017.51 1017.83 1018.09 1018.43 1018.71 1018.84 1019.09 1019.28 1019.40 1019.44 1019.90 1020.38 1020.92 1020.82 1020.67 1020.37 1020.41 1020.30 1020.49 1020.83 1020.98 1021.29 1021.66 1021.89 1022.16 1022.50 1022.59 1022.68 1022.79 1022.93 1023.05 1023.19 1023.22 1023.27 1023.35
1013.94 1014.27 1014.67 1015.14 1015.46 1015.65 1016.11 1016.68 1017.02 1017.40 1017.69 1018.03 1018.29 1018.53 1018.85 1018.96 1019.05 1019.02 1019.02 1019.55 1020.25 1020.96 1020.95 1020.25 1020.31 1019.80 1019.93 1020.15 1020.40 1020.84 1021.15 1021.43 1021.77 1021.93 1022.07 1022.23 1022.50 1022.77 1022.95 1022.93 1023.03 1022.92 1022.78
1013.27 1013.65 1014.01 1014.31 1014.75 1015.22 1015.72 1016.16 1016.59 1016.93 1017.27 1017.64 1017.92 1018.31 1018.56 1018.74 1018.92 1018.93 1018.74 1018.95 1019.47 1020.11 1020.76 1020.07 1019.86 1019.48 1019.45 1019.62 1019.92 1020.27 1020.73 1020.90 1021.11 1021.15 1021.39 1021.49 1021.90 1022.18 1022.30 1022.52 1022.56 1022.56 1022.49
1012.57 1012.88 1013.24 1013.86 1014.28 1014.74 1015.25 1015.79 1016.21 1016.62 1017.00 1017.41 1017.73 1017.95 1018.19 1018.33 1018.55 1018.64 1018.69 1018.58 1019.01 1019.39 1019.99 1019.75 1019.43 1019.19 1019.55 1019.66 1019.94 1020.22 1020.35 1020.56 1020.60 1020.76 1020.94 1021.31 1021.67 1021.71 1021.83 1022.02 1022.13 1022.22 1022.27
1011.83 1012.20 1012.67 1013.13 1013.72 1014.36 1014.89 1015.35 1015.63 1015.92 1016.38 1016.82 1017.02 1017.43 1017.57 1017.92 1018.09 1018.20 1018.41 1018.59 1018.62 1018.73 1019.20 1019.58 1019.34 1019.32 1019.32 1019.47 1019.51 1019.94 1019.75 1019.67 1020.00 1020.24 1020.59 1020.81 1020.78 1021.02 1021.22 1021.28 1021.58 1021.64 1021.99
1011.25 1011.61 1012.22 1012.59 1012.96 1013.42 1013.93 1014.30 1014.63 1015.03 1015.42 1015.75 1016.04 1016.29 1016.76 1017.16 1017.35 1017.56 1017.96 1018.17 1018.20 1018.04 1018.38 1018.76 1018.93 1018.92 1018.99 1019.36 1019.62 1019.47 1019.48 1019.40 1019.60 1019.65 1019.95 1019.96 1020.08 1020.28 1020.54 1020.79 1021.01 1021.33 1021.65
1010.53 1010.94 1011.26 1011.60 1012.01 1012.41 1012.89 1013.37 1013.83 1014.29 1014.62 1014.86 1015.09 1015.33 1015.67 1016.00 1016.25 1016.65 1017.10 1017.24 1017.52 1017.92 1017.88 1017.92 1018.18 1018.46 1018.71 1018.72 1018.98 1019.34 1019.62 1019.41 1019.32 1019.31 1019.37 1019.63 1019.97 1019.91 1019.91 1020.19 1020.48 1020.75 1021.18
1009.62 1010.06 1010.44 1010.80 1011.16 1011.46 1011.78 1012.25 1012.69 1013.14 1013.51 1013.79 1014.05 1014.31 1014.45 1014.63 1015.04 1015.57 1016.18 1016.38 1016.71 1017.20 1017.24 1017.50 1017.75 1017.81 1017.91 1018.10 1018.14 1018.33 1018.83 1018.78 1018.99 1019.15 1019.47 1019.57 1019.98 1019.97 1019.70 1019.59 1019.56 1020.02 1020.71
1008.72 1009.24 1009.55 1009.88 1010.19 1010.39 1010.61 1011.03 1011.55 1012.04 1012.46 1012.87 1013.14 1013.29 1013.52 1013.84 1014.09 1014.21 1014.41 1014.83 1015.13 1015.65 1015.92 1016.30 1016.29 1016.60 1016.38 1016.46 1016.97 1017.41 1017.74 1018.46 1018.73 1017.98 1018.59 1018.99 1019.15 1019.72 1019.42 1019.24 1018.94 1019.12 1019.76
1007.64 1007.99 1008.40 1008.78 1009.00 1009.18 1009.50 1010.02 1010.49 1011.01 1011.47 1011.64 1011.91 1012.09 1012.41 1012.72 1013.22 1013.74 1014.11 1014.05 1014.18 1014.42 1014.23 1014.61 1014.98 1014.78 1014.85 1014.95 1015.75 1016.21 1016.55 1016.93 1017.40 1017.64 1018.07 1018.69 1018.64 1018.76 1018.61 1018.48 1018.44 1018.55 1018.87
1006.37 1006.76 1007.16 1007.44 1007.86 1007.81 1008.36 1009.08 1009.66 1010.24 1010.46 1010.43 1010.52 1010.77 1011.20 1011.57 1011.95 1012.45 1012.89 1013.35 1013.71 1013.83 1013.70 1014.10 1013.79 1013.74 1013.83 1014.15 1014.58 1014.75 1015.34 1016.34 1016.78 1016.90 1017.50 1017.98 1018.48 1018.44 1018.15 1018.35 1018.41 1018.31 1018.45
1005.39 1005.61 1006.05 1006.52 1006.67 1006.74 1007.45 1008.23 1009.17 1009.53 1009.57 1009.30 1009.60 1009.89 1010.15 1010.41 1010.62 1011.06 1011.65 1011.88 1012.07 1011.76 1012.01 1012.67 1012.54 1012.77 1013.20 1013.26 1013.17 1013.66 1014.57 1015.37 1016.10 1016.28 1015.89 1016.94 1016.84 1018.68 1018.42 1018.20 1018.25 1018.22 1018.14
1004.21 1004.83 1005.01 1005.22 1005.64 1005.87 1006.70 1007.59 1008.37 1008.83 1008.78 1008.37 1008.92 1008.81 1008.96 1009.08 1009.57 1010.07 1010.50 1010.64 1010.54 1009.92 1011.05 1011.51 1011.98 1012.22 1012.08 1012.32 1012.60 1012.51 1013.41 1014.46 1015.14 1015.73 1015.59 1015.46 1015.82 1017.01 1018.68 1018.00 1018.01 1018.18 1018.17
Thickness
5772 5769 5770 5765 5766 5767 5767 5769 5768 5765 5767 5767 5768 5767 5763 5758 5755 5752 5747 5743 5742 5740 5738 5736 5735 5733 5731 5729 5728 5728 5728 5727 5724 5722 5718 5718 5719 5717 5714 5712 5711 5710 5710
5770 5772 5773 5770 5771 5770 5770 5771 5769 5769 5768 5768 5767 5768 5759 5761 5756 5750 5747 5743 5741 5740 5739 5739 5737 5736 5733 5732 5731 5729 5726 5724 5721 5719 5717 5716 5715 5714 5710 5707 5705 5705 5705
5774 5777 5775 5774 5776 5775 5773 5771 5766 5766 5766 5766 5766 5767 5763 5759 5754 5749 5747 5744 5741 5743 5741 5739 5738 5739 5738 5736 5734 5730 5727 5724 5722 5720 5719 5717 5716 5714 5710 5706 5703 5701 5701
5780 5776 5775 5777 5774 5772 5772 5770 5767 5767 5765 5765 5766 5765 5764 5758 5755 5752 5751 5747 5744 5747 5744 5741 5741 5742 5740 5738 5735 5732 5728 5723 5724 5725 5725 5721 5717 5713 5710 5707 5703 5700 5700
5783 5780 5777 5777 5777 5775 5777 5772 5769 5767 5764 5765 5765 5767 5764 5766 5760 5753 5752 5747 5747 5748 5745 5746 5744 5742 5738 5739 5736 5735 5728 5730 5727 5726 5724 5720 5715 5711 5712 5711 5709 5705 5703
5788 5786 5784 5782 5782 5780 5779 5775 5770 5770 5768 5768 5769 5765 5764 5767 5763 5754 5752 5751 5748 5747 5745 5746 5743 5743 5741 5742 5735 5739 5733 5734 5730 5732 5722 5721 5718 5719 5718 5714 5712 5709 5708
5792 5789 5787 5784 5781 5780 5780 5777 5774 5771 5769 5769 5762 5758 5760 5763 5760 5761 5755 5753 5749 5746 5747 5745 5743 5745 5742 5741 5741 5741 5735 5731 5733 5728 5726 5724 5722 5723 5717 5714 5714 5714 5712
5796 5795 5790 5786 5784 5782 5778 5777 5775 5772 5770 5769 5756 5755 5743 5750 5756 5760 5756 5755 5753 5749 5747 5745 5746 5745 5742 5740 5738 5737 5733 5731 5730 5729 5727 5722 5719 5718 5716 5716 5709 5710 5709
5801 5798 5794 5791 5788 5784 5781 5781 5781 5777 5770 5770 5770 5760 5745 5740 5748 5755 5757 5756 5755 5752 5751 5750 5748 5746 5742 5739 5738 5736 5732 5731 5727 5725 5722 5719 5719 5718 5713 5711 5711 5710 5707
5803 5801 5796 5793 5790 5787 5786 5785 5785 5782 5778 5768 5772 5772 5768 5762 5745 5742 5755 5755 5757 5754 5754 5751 5750 5746 5743 5741 5738 5735 5732 5727 5724 5722 5720 5717 5714 5712 5710 5711 5711 5706 5702
5806 5805 5801 5797 5794 5791 5789 5789 5786 5784 5782 5776 5773 5771 5768 5765 5762 5750 5740 5747 5753 5755 5754 5754 5753 5748 5745 5742 5739 5737 5735 5730 5725 5721 5718 5714 5712 5709 5708 5705 5704 5700 5699
5809 5809 5805 5801 5798 5795 5792 5790 5789 5787 5784 5782 5779 5776 5772 5763 5760 5757 5753 5748 5751 5755 5760 5757 5756 5752 5748 5745 5743 5741 5736 5732 5729 5723 5718 5715 5712 5709 5706 5704 5701 5699 5698
5811 5811 5809 5804 5802 5799 5796 5794 5791 5791 5788 5784 5781 5779 5778 5775 5774 5767 5760 5757 5753 5756 5756 5760 5760 5758 5754 5750 5746 5743 5739 5734 5731 5725 5720 5717 5715 5710 5705 5701 5699 5695 5692
5817 5817 5813 5809 5806 5804 5801 5798 5796 5794 5792 5787 5784 5783 5780 5778 5776 5775 5767 5759 5750 5751 5755 5758 5762 5762 5759 5754 5751 5747 5743 5739 5733 5726 5723 5720 5717 5712 5707 5701 5698 5696 5691
5821 5819 5817 5812 5809 5807 5804 5801 5798 5795 5794 5790 5787 5785 5781 5780 5779 5778 5776 5770 5758 5744 5746 5759 5756 5763 5764 5761 5758 5750 5745 5741 5736 5731 5727 5724 5718 5711 5704 5700 5696 5695 5695
5824 5821 5819 5819 5816 5812 5808 5805 5801 5798 5795 5792 5789 5785 5783 5781 5779 5779 5778 5775 5770 5760 5749 5760 5763 5767 5765 5762 5759 5754 5748 5743 5740 5736 5731 5728 5720 5712 5707 5702 5697 5694 5692
5826 5824 5822 5819 5816 5813 5809 5805 5801 5796 5792 5789 5786 5784 5783 5783 5780 5780 5778 5777 5772 5768 5758 5762 5765 5766 5764 5763 5758 5754 5751 5747 5742 5736 5730 5723 5717 5714 5709 5703 5697 5692 5688
5827 5825 5822 5819 5816 5812 5808 5803 5800 5799 5793 5789 5788 5785 5786 5785 5782 5781 5778 5775 5775 5773 5765 5760 5766 5766 5763 5760 5757 5752 5751 5748 5743 5736 5731 5725 5721 5716 5709 5705 5697 5693 5686
5829 5827 5823 5820 5818 5815 5810 5808 5806 5802 5799 5797 5796 5795 5790 5788 5786 5784 5780 5777 5777 5777 5774 5765 5764 5766 5763 5757 5751 5749 5747 5746 5742 5737 5731 5728 5724 5717 5712 5706 5698 5689 5683
5833 5830 5829 5827 5824 5822 5818 5814 5810 5805 5802 5801 5801 5801 5799 5796 5793 5790 5786 5784 5781 5776 5775 5771 5765 5761 5760 5758 5753 5745 5739 5740 5737 5734 5732 5726 5721 5718 5713 5706 5697 5689 5681
5839 5837 5834 5831 5829 5827 5825 5821 5817 5812 5809 5808 5808 5807 5808 5807 5804 5797 5790 5788 5785 5778 5775 5771 5766 5762 5756 5754 5753 5750 5743 5741 5735 5731 5728 5721 5719 5713 5711 5705 5699 5691 5681
5844 5841 5838 5836 5834 5834 5833 5829 5826 5821 5818 5814 5812 5814 5814 5811 5808 5807 5805 5800 5796 5787 5783 5777 5775 5769 5768 5762 5757 5752 5746 5735 5728 5734 5724 5715 5713 5707 5704 5701 5698 5691 5685
5850 5848 5846 5844 5841 5842 5840 5836 5833 5830 5825 5823 5821 5820 5818 5818 5812 5806 5801 5801 5798 5792 5792 5786 5778 5779 5776 5773 5761 5754 5750 5743 5732 5728 5717 5703 5703 5701 5700 5698 5694 5690 5684
5857 5855 5853 5852 5849 5852 5847 5840 5836 5835 5832 5832 5831 5829 5825 5821 5819 5812 5806 5800 5795 5791 5790 5780 5780 5779 5777 5773 5764 5758 5749 5738 5730 5725 5715 5701 5695 5689 5691 5688 5685 5683 5679
5861 5861 5858 5856 5856 5857 5851 5844 5835 5833 5832 5835 5834 5832 5829 5826 5824 5815 5810 5805 5800 5802 5799 5789 5786 5779 5770 5765 5766 5759 5744 5731 5720 5715 5717 5702 5697 5678 5677 5679 5676 5676 5673
5867 5863 5862 5862 5860 5860 5853 5844 5837 5833 5830 5834 5830 5833 5831 5831 5825 5817 5810 5807 5805 5810 5794 5791 5783 5779 5776 5768 5758 5757 5744 5727 5716 5707 5703 5698 5691 5678 5658 5671 5669 5668 5666